Location: Carella
(45.8167°N, 9.2667°E)
Time: 23:17:10
(UTC+00:00)

STARLINK-1106 - Pass Details

Date: 30 March 2020
Orbit: 549 x 550 km, 53.0° (Epoch: 24 May)

Event Time Altitude Azimuth Distance (km) Brightness Sun altitude
Rises 19:07:36 0° 300° (WNW) 2,728 9.0 -14.0°
Reaches altitude 10° 19:09:53 10° 306° (NW) 1,832 7.6 -14.4°
Maximum altitude 19:13:58 53° 23° (NNE) 681 4.0 -15.1°
Enters shadow 19:16:01 26° 90° (E) 1,094 4.6 -15.4°
